Time,TemperatureF,DewpointF,PressureIn,WindDirection,WindDirectionDegrees,WindSpeedMPH,WindSpeedGustMPH,Humidity,HourlyPrecipIn,Conditions,Clouds,dailyrainin,SolarRadiationWatts/m^2,SoftwareType,DateUTC
2013-04-18 00:03:00,34.0,28.0,-100.00,NE,40,1.0,6.0,77,0.00,,,0.00,0.000000,,2013-04-18 04:03:00,
2013-04-18 00:12:00,34.0,28.0,-100.00,NE,39,2.0,4.0,77,0.00,,,0.00,0.000000,,2013-04-18 04:12:00,
2013-04-18 00:33:00,34.0,28.0,-100.00,NE,39,2.0,4.0,77,0.00,,,0.00,0.000000,,2013-04-18 04:33:00,
2013-04-18 00:43:00,34.0,28.0,-100.00,NE,39,2.0,4.0,77,0.00,,,0.00,0.000000,,2013-04-18 04:43:00,
2013-04-18 00:53:00,34.0,28.0,-100.00,NE,39,2.0,4.0,77,0.00,,,0.00,0.000000,,2013-04-18 04:53:00,
2013-04-18 01:02:00,34.0,28.0,-100.00,NE,39,2.0,4.0,77,0.00,,,0.00,0.000000,,2013-04-18 05:02:00,
2013-04-18 01:12:00,34.0,27.0,-100.00,NE,50,2.0,5.0,75,0.00,,,0.00,0.000000,,2013-04-18 05:12:00,
2013-04-18 01:33:00,34.0,27.0,-100.00,NE,50,2.0,5.0,75,0.00,,,0.00,0.000000,,2013-04-18 05:33:00,
2013-04-18 01:42:00,34.0,27.0,-100.00,NE,50,2.0,5.0,75,0.00,,,0.00,0.000000,,2013-04-18 05:42:00,
2013-04-18 01:52:00,34.0,27.0,-100.00,NE,50,2.0,5.0,75,0.00,,,0.00,0.000000,,2013-04-18 05:52:00,
2013-04-18 02:02:00,34.0,27.0,-100.00,NE,50,2.0,5.0,75,0.00,,,0.00,0.000000,,2013-04-18 06:02:00,
2013-04-18 02:12:00,35.0,27.0,-100.00,ENE,75,3.0,7.0,73,0.00,,,0.00,0.000000,,2013-04-18 06:12:00,
2013-04-18 02:32:00,35.0,27.0,-100.00,ENE,75,3.0,7.0,73,0.00,,,0.00,0.000000,,2013-04-18 06:32:00,
2013-04-18 02:42:00,35.0,27.0,-100.00,ENE,75,3.0,7.0,73,0.00,,,0.00,0.000000,,2013-04-18 06:42:00,
2013-04-18 02:52:00,35.0,27.0,-100.00,ENE,75,3.0,7.0,73,0.00,,,0.00,0.000000,,2013-04-18 06:52:00,
2013-04-18 03:02:00,35.0,27.0,-100.00,ENE,75,3.0,7.0,73,0.00,,,0.00,0.000000,,2013-04-18 07:02:00,
2013-04-18 03:12:00,34.0,30.0,-100.00,ENE,66,2.0,8.0,84,0.00,,,0.00,0.000000,,2013-04-18 07:12:00,
2013-04-18 03:42:00,34.0,30.0,-100.00,ENE,66,2.0,8.0,84,0.00,,,0.00,0.000000,,2013-04-18 07:42:00,
2013-04-18 03:52:00,34.0,30.0,-100.00,ENE,66,2.0,8.0,84,0.00,,,0.00,0.000000,,2013-04-18 07:52:00,
2013-04-18 04:02:00,34.0,30.0,-100.00,ENE,66,2.0,8.0,84,0.00,,,0.00,0.000000,,2013-04-18 08:02:00,
2013-04-18 04:12:00,32.0,30.0,-100.00,NE,47,3.0,7.0,94,0.00,,,0.00,0.000000,,2013-04-18 08:12:00,
2013-04-18 04:32:00,32.0,30.0,-100.00,NE,47,3.0,7.0,94,0.00,,,0.00,0.000000,,2013-04-18 08:32:00,
2013-04-18 04:42:00,32.0,30.0,-100.00,NE,47,3.0,7.0,94,0.00,,,0.00,0.000000,,2013-04-18 08:42:00,
2013-04-18 04:52:00,32.0,30.0,-100.00,NE,47,3.0,7.0,94,0.00,,,0.00,0.000000,,2013-04-18 08:52:00,
2013-04-18 05:02:00,32.0,30.0,-100.00,NE,47,3.0,7.0,94,0.00,,,0.00,0.000000,,2013-04-18 09:02:00,
2013-04-18 05:12:00,32.0,31.0,-100.00,NE,54,3.0,8.0,96,0.00,,,0.00,0.000000,,2013-04-18 09:12:00,
2013-04-18 05:33:00,32.0,31.0,-100.00,NE,54,3.0,8.0,96,0.00,,,0.00,0.000000,,2013-04-18 09:33:00,
2013-04-18 05:43:00,32.0,31.0,-100.00,NE,54,3.0,8.0,96,0.00,,,0.00,0.000000,,2013-04-18 09:43:00,
2013-04-18 05:53:00,32.0,31.0,-100.00,NE,54,3.0,8.0,96,0.00,,,0.00,0.000000,,2013-04-18 09:53:00,
2013-04-18 06:03:00,32.0,31.0,-100.00,NE,54,3.0,8.0,96,0.00,,,0.00,0.000000,,2013-04-18 10:03:00,
2013-04-18 06:12:00,32.0,31.0,-100.00,North,350,4.0,8.0,97,0.00,,,0.00,0.000000,,2013-04-18 10:12:00,
2013-04-18 06:33:00,32.0,31.0,-100.00,North,350,4.0,8.0,97,0.00,,,0.00,0.000000,,2013-04-18 10:33:00,
2013-04-18 06:42:00,32.0,31.0,-100.00,North,350,4.0,8.0,97,0.00,,,0.00,0.000000,,2013-04-18 10:42:00,
2013-04-18 06:52:00,32.0,31.0,-100.00,North,350,4.0,8.0,97,0.00,,,0.00,0.000000,,2013-04-18 10:52:00,
2013-04-18 07:02:00,32.0,31.0,-100.00,North,350,4.0,8.0,97,0.00,,,0.00,0.000000,,2013-04-18 11:02:00,
2013-04-18 07:12:00,32.0,31.0,-100.00,NNE,22,3.0,8.0,97,0.00,,,0.00,0.000000,,2013-04-18 11:12:00,
2013-04-18 07:32:00,32.0,31.0,-100.00,NNE,22,3.0,8.0,97,0.00,,,0.00,0.000000,,2013-04-18 11:32:00,
2013-04-18 07:42:00,32.0,31.0,-100.00,NNE,22,3.0,8.0,97,0.00,,,0.00,0.000000,,2013-04-18 11:42:00,
2013-04-18 07:52:00,32.0,31.0,-100.00,NNE,22,3.0,8.0,97,0.00,,,0.00,0.000000,,2013-04-18 11:52:00,
2013-04-18 08:02:00,32.0,31.0,-100.00,NNE,22,3.0,8.0,97,0.00,,,0.00,0.000000,,2013-04-18 12:02:00,
2013-04-18 08:12:00,32.0,31.0,-100.00,NNE,26,3.0,7.0,97,0.00,,,0.00,3.000000,,2013-04-18 12:12:00,
2013-04-18 08:32:00,32.0,31.0,-100.00,NNE,26,3.0,7.0,97,0.00,,,0.00,3.000000,,2013-04-18 12:32:00,
2013-04-18 08:42:00,32.0,31.0,-100.00,NNE,26,3.0,7.0,97,0.00,,,0.00,3.000000,,2013-04-18 12:42:00,
2013-04-18 08:52:00,32.0,31.0,-100.00,NNE,26,3.0,7.0,97,0.00,,,0.00,3.000000,,2013-04-18 12:52:00,
2013-04-18 09:02:00,32.0,31.0,-100.00,NNE,26,3.0,7.0,97,0.00,,,0.00,3.000000,,2013-04-18 13:02:00,
2013-04-18 09:12:00,33.0,32.0,-100.00,NNW,342,3.0,6.0,97,0.00,,,0.00,22.000000,,2013-04-18 13:12:00,
2013-04-18 09:33:00,33.0,32.0,-100.00,NNW,342,3.0,6.0,97,0.00,,,0.00,22.000000,,2013-04-18 13:33:00,
2013-04-18 09:42:00,33.0,32.0,-100.00,NNW,342,3.0,6.0,97,0.00,,,0.00,22.000000,,2013-04-18 13:42:00,
2013-04-18 09:53:00,33.0,32.0,-100.00,NNW,342,3.0,6.0,97,0.00,,,0.00,22.000000,,2013-04-18 13:53:00,
2013-04-18 10:02:00,33.0,32.0,-100.00,NNW,342,3.0,6.0,97,0.00,,,0.00,22.000000,,2013-04-18 14:02:00,
2013-04-18 10:12:00,34.0,33.0,-100.00,NNE,19,3.0,7.0,97,0.00,,,0.00,69.000000,,2013-04-18 14:12:00,
2013-04-18 10:33:00,34.0,33.0,-100.00,NNE,19,3.0,7.0,97,0.00,,,0.00,69.000000,,2013-04-18 14:33:00,
2013-04-18 10:43:00,34.0,33.0,-100.00,NNE,19,3.0,7.0,97,0.00,,,0.00,69.000000,,2013-04-18 14:43:00,
2013-04-18 10:52:00,34.0,33.0,-100.00,NNE,19,3.0,7.0,97,0.00,,,0.00,69.000000,,2013-04-18 14:52:00,
2013-04-18 11:02:00,34.0,33.0,-100.00,NNE,19,3.0,7.0,97,0.00,,,0.00,69.000000,,2013-04-18 15:02:00,
2013-04-18 11:12:00,35.0,34.0,-100.00,NNE,12,3.0,9.0,97,0.00,,,0.00,83.000000,,2013-04-18 15:12:00,
2013-04-18 11:33:00,35.0,34.0,-100.00,NNE,12,3.0,9.0,97,0.00,,,0.00,83.000000,,2013-04-18 15:33:00,
2013-04-18 11:43:00,35.0,34.0,-100.00,NNE,12,3.0,9.0,97,0.00,,,0.00,83.000000,,2013-04-18 15:43:00,
2013-04-18 11:53:00,35.0,34.0,-100.00,NNE,12,3.0,9.0,97,0.00,,,0.00,83.000000,,2013-04-18 15:53:00,
2013-04-18 12:03:00,35.0,34.0,-100.00,NNE,12,3.0,9.0,97,0.00,,,0.00,83.000000,,2013-04-18 16:03:00,
2013-04-18 12:12:00,35.0,34.0,-100.00,NNE,19,5.0,10.0,96,0.00,,,0.00,110.000000,,2013-04-18 16:12:00,
2013-04-18 12:33:00,35.0,34.0,-100.00,NNE,19,5.0,10.0,96,0.00,,,0.00,110.000000,,2013-04-18 16:33:00,
2013-04-18 12:43:00,35.0,34.0,-100.00,NNE,19,5.0,10.0,96,0.00,,,0.00,110.000000,,2013-04-18 16:43:00,
2013-04-18 12:53:00,35.0,34.0,-100.00,NNE,19,5.0,10.0,96,0.00,,,0.00,110.000000,,2013-04-18 16:53:00,
2013-04-18 13:03:00,35.0,34.0,-100.00,NNE,19,5.0,10.0,96,0.00,,,0.00,110.000000,,2013-04-18 17:03:00,
2013-04-18 13:12:00,37.0,36.0,-100.00,NNE,25,5.0,11.0,95,0.00,,,0.00,214.000000,,2013-04-18 17:12:00,
2013-04-18 13:43:00,37.0,36.0,-100.00,NNE,25,5.0,11.0,95,0.00,,,0.00,214.000000,,2013-04-18 17:43:00,
2013-04-18 13:52:00,37.0,36.0,-100.00,NNE,25,5.0,11.0,95,0.00,,,0.00,214.000000,,2013-04-18 17:52:00,
2013-04-18 14:02:00,37.0,36.0,-100.00,NNE,25,5.0,11.0,95,0.00,,,0.00,214.000000,,2013-04-18 18:02:00,
2013-04-18 14:12:00,38.0,35.0,-100.00,NNE,31,5.0,15.0,90,0.00,,,0.00,371.000000,,2013-04-18 18:12:00,
2013-04-18 14:43:00,38.0,35.0,-100.00,NNE,31,5.0,15.0,90,0.00,,,0.00,371.000000,,2013-04-18 18:43:00,
2013-04-18 14:52:00,38.0,35.0,-100.00,NNE,31,5.0,15.0,90,0.00,,,0.00,371.000000,,2013-04-18 18:52:00,
2013-04-18 15:02:00,38.0,35.0,-100.00,NNE,31,5.0,15.0,90,0.00,,,0.00,371.000000,,2013-04-18 19:02:00,
2013-04-18 15:12:00,36.0,34.0,-100.00,NNW,332,4.0,9.0,94,0.00,,,0.00,97.000000,,2013-04-18 19:12:00,
2013-04-18 15:33:00,36.0,34.0,-100.00,NNW,332,4.0,9.0,94,0.00,,,0.00,97.000000,,2013-04-18 19:33:00,
2013-04-18 15:42:00,36.0,34.0,-100.00,NNW,332,4.0,9.0,94,0.00,,,0.00,97.000000,,2013-04-18 19:42:00,
2013-04-18 15:53:00,36.0,34.0,-100.00,NNW,332,4.0,9.0,94,0.00,,,0.00,97.000000,,2013-04-18 19:53:00,
2013-04-18 16:02:00,36.0,34.0,-100.00,NNW,332,4.0,9.0,94,0.00,,,0.00,97.000000,,2013-04-18 20:02:00,
2013-04-18 16:12:00,36.0,34.0,-100.00,NNE,16,4.0,11.0,94,0.00,,,0.00,149.000000,,2013-04-18 20:12:00,
2013-04-18 16:42:00,36.0,34.0,-100.00,NNE,16,4.0,11.0,94,0.00,,,0.00,149.000000,,2013-04-18 20:42:00,
2013-04-18 16:52:00,36.0,34.0,-100.00,NNE,16,4.0,11.0,94,0.00,,,0.00,149.000000,,2013-04-18 20:52:00,
2013-04-18 17:02:00,36.0,34.0,-100.00,NNE,16,4.0,11.0,94,0.00,,,0.00,149.000000,,2013-04-18 21:02:00,
2013-04-18 18:42:00,34.0,33.0,-100.00,NNE,19,5.0,13.0,96,-99.99,,,0.00,131.000000,,2013-04-18 22:42:00,
2013-04-18 18:52:00,34.0,33.0,-100.00,NNE,19,5.0,13.0,96,-99.99,,,0.00,131.000000,,2013-04-18 22:52:00,
2013-04-18 19:04:00,34.0,33.0,-100.00,NNE,19,5.0,13.0,96,-99.99,,,0.00,131.000000,,2013-04-18 23:04:00,
2013-04-18 19:11:00,34.0,33.0,-100.00,NNE,19,5.0,13.0,96,-99.99,,,0.00,131.000000,,2013-04-18 23:11:00,
2013-04-18 19:12:00,33.0,32.0,-100.00,NE,34,6.0,14.0,97,0.00,,,-99.99,32.000000,,2013-04-18 23:12:00,
2013-04-18 19:32:00,33.0,32.0,-100.00,NE,34,6.0,14.0,97,0.00,,,-99.99,32.000000,,2013-04-18 23:32:00,
2013-04-18 19:42:00,33.0,32.0,-100.00,NE,34,6.0,14.0,97,0.00,,,-99.99,32.000000,,2013-04-18 23:42:00,
2013-04-18 19:52:00,33.0,32.0,-100.00,NE,34,6.0,14.0,97,0.00,,,-99.99,32.000000,,2013-04-18 23:52:00,
2013-04-18 20:01:00,33.0,32.0,-100.00,NE,34,6.0,14.0,97,0.00,,,-99.99,32.000000,,2013-04-19 00:01:00,
2013-04-18 21:42:00,33.0,32.0,-100.00,ENE,66,5.0,13.0,98,-99.99,,,0.00,1.000000,,2013-04-19 01:42:00,
2013-04-18 21:52:00,33.0,32.0,-100.00,ENE,66,5.0,13.0,98,-99.99,,,0.00,1.000000,,2013-04-19 01:52:00,
2013-04-18 22:02:00,33.0,32.0,-100.00,ENE,66,5.0,13.0,98,-99.99,,,0.00,1.000000,,2013-04-19 02:02:00,
2013-04-18 22:11:00,33.0,32.0,-100.00,ENE,66,5.0,13.0,98,-99.99,,,0.00,1.000000,,2013-04-19 02:11:00,
2013-04-18 22:32:00,33.0,32.0,-100.00,ENE,76,5.0,14.0,98,0.00,,,0.00,0.000000,,2013-04-19 02:32:00,
2013-04-18 22:42:00,33.0,32.0,-100.00,ENE,76,5.0,14.0,98,0.00,,,0.00,0.000000,,2013-04-19 02:42:00,
2013-04-18 22:52:00,33.0,32.0,-100.00,ENE,76,5.0,14.0,98,0.00,,,0.00,0.000000,,2013-04-19 02:52:00,
2013-04-18 23:01:00,33.0,32.0,-100.00,ENE,76,5.0,14.0,98,0.00,,,0.00,0.000000,,2013-04-19 03:01:00,
2013-04-18 23:11:00,33.0,32.0,-100.00,ENE,76,5.0,14.0,98,0.00,,,0.00,0.000000,,2013-04-19 03:11:00,
2013-04-18 23:12:00,33.0,32.0,-100.00,NNE,28,4.0,10.0,98,0.00,,,0.00,0.000000,,2013-04-19 03:12:00,
2013-04-18 23:43:00,33.0,32.0,-100.00,NNE,28,4.0,10.0,98,0.00,,,0.00,0.000000,,2013-04-19 03:43:00,
2013-04-18 23:53:00,33.0,32.0,-100.00,NNE,28,4.0,10.0,98,0.00,,,0.00,0.000000,,2013-04-19 03:53:00,